Flag for United Arab Emirates Weather past 2 weeks in Al Ain, Abu Dhabi, United Arab Emirates

Now
95 °F

Sunny.


Feels Like: 94 °F
Forecast: 85 / 111 °F
Wind: 14 mph from South

Location: Al Ain International Airport

Current Time: Jul 1, 2015 at 9:55:01 AM

Latest Report: Jul 1, 2015 at 9:00 AM


Visibility: 10 mi

Pressure: 29.68 "Hg

Humidity: 30%

Dew point: 59 °F

Location of Al AinLocation

Historic Weather in Al Ain — Graph

°F

Al Ain temperature yesterday

Maximum temperature yesterday: 106 °F (at 4:00 PM)
Minimum temperature yesterday: 81 °F (at 6:00 AM)
Average temperature yesterday: 93 °F

Past Weeks' High & Low Weather Summary

 TemperatureHumidityPressure
High115 °F (Jun 18, 3:00 PM)94% (Jun 21, 7:00 AM)29.71 "Hg (Jun 21, 7:00 AM)
Low79 °F (Jun 26, 4:00 AM)6% (Jun 26, 1:00 PM)29.39 "Hg (Jun 20, 5:00 PM)
Average95 °F36%29.55 "Hg
* Reported Jun 16 8:00 AM — Jul 1 8:00 AM, Al Ain, Weather by CustomWeather, © 2015

Note: Actual official high and low records may vary slightly from our data, if they occured in-between our weather recording intervals... More about our weather records

Advertising

Al Ain weather history for previous 24 hours

 ConditionsComfort  
Time TempWeatherWind HumidityBarometerVisibility
8:00 AM
Wed, Jul 1
91 °FClear.14 mph38%29.68 "Hg5 mi
7:00 AM88 °FClear.13 mph46%29.65 "Hg4 mi
6:00 AM86 °FSunny.10 mph49%29.62 "Hg10 mi
5:00 AM84 °FClear.9 mph58%29.62 "Hg10 mi
4:00 AM84 °FClear.10 mph62%29.62 "Hg10 mi
3:00 AM86 °FClear.13 mph62%29.59 "Hg10 mi
2:00 AM88 °FClear.8 mph62%29.59 "Hg5 mi
1:00 AM90 °FClear.6 mph59%29.62 "Hg5 mi
12:00 AM90 °FClear.6 mph63%29.62 "Hg5 mi
11:00 PM
Tue, Jun 30
91 °FClear.8 mph56%29.65 "Hg5 mi
10:00 PM93 °FClear.10 mph47%29.65 "Hg5 mi
9:00 PM95 °FClear.14 mph53%29.62 "Hg5 mi
8:00 PM99 °FClear.14 mph44%29.59 "Hg10 mi
7:00 PM104 °FPassing clouds.5 mph17%29.59 "HgN/A
6:00 PM106 °FPassing clouds.3 mph17%29.59 "HgN/A
5:00 PM106 °FPassing clouds.6 mph15%29.59 "HgN/A
4:00 PM106 °FSunny.2 mph17%29.59 "Hg10 mi
3:00 PM104 °FPassing clouds.5 mph17%29.62 "HgN/A
2:00 PM104 °FPassing clouds.6 mph19%29.62 "HgN/A
1:00 PM100 °FPassing clouds.6 mph21%29.65 "HgN/A
12:00 PM99 °FPassing clouds.8 mph25%29.68 "HgN/A
11:00 AM95 °FPassing clouds.6 mph34%29.68 "HgN/A
10:00 AM91 °FClear.3 mph41%29.68 "Hg5 mi
9:00 AM88 °FClear.3 mph55%29.68 "Hg5 mi
Weather by CustomWeather, © 2015

See weather overviewHow to use our weather pages